Regional Weather Roundup
Issued by NWS Midland/Odessa, TX

Skip options and go directly to product.
Home | Oldest Version | Next Version | Current Version | All | Text Only | Save Text | Print | Product List | Glossary On

Skip product version selection by date and time.   
474
ASUS44 KMAF 010202
RWRMAF
MIDLAND AREA WEATHER ROUNDUP
NATIONAL WEATHER SERVICE MIDLAND TX
900 PM CDT SUN AUG 31 2014

...IN SOUTHWEST TEXAS AND SOUTHEAST NEW MEXICO...

CITY           SKY/WX    TMP DP  RH WIND       PRES   REMARKS
ALPINE         PTCLDY    85  49  28 S6        30.06R
ANDREWS        FAIR      90  53  28 S13G18    29.89R
ARTESIA        NOT AVBL
BIG SPRING     CLEAR     92  58  32 SE20      29.91R
CARLSBAD       CLEAR     92  46  20 W6        29.84S
DRYDEN           N/A     93  62  35 E14       29.88R
FORT STOCKTON  CLEAR     88  60  38 SE16G29   29.90R
GUAD PASS      CLEAR     84  42  22 SW13G18   30.08R
HOBBS          CLEAR     90  45  20 S8        29.90S
MARFA          PTCLDY    82  48  30 W5        30.06S
MIDLAND AIRPK  NOT AVBL
MIDLAND INTL   CLEAR     92  55  28 SE17      29.88R
ODESSA         CLEAR     92  54  27 S21       29.89R
PECOS          CLEAR     94  56  27 SE15G21   29.82R
PRESIDIO       FAIR      96  46  18 CALM      29.85S
SEMINOLE       CLEAR     90  49  25 S12       29.89S
SNYDER         CLEAR     90  61  37 S14       29.88S
WINK           CLEAR     95  55  26 SE21      29.84R
$$
...OTHER STATIONS IN TEXAS...

CITY           SKY/WX    TMP DP  RH WIND       PRES   REMARKS
ABILENE        CLEAR     90  63  40 S12       29.88R
AMARILLO       CLEAR     89  42  19 S14       29.82R
AUSTIN         PTCLDY    85  69  58 SE17      29.91R
BROWNSVILLE    CLEAR     83  79  88 E9        29.90S
CORPUS CHRISTI MOCLDY    83  78  85 SE13      29.90S
DALLAS FTW     PTCLDY    88  71  57 SE20G26   29.86R
DEL RIO        CLEAR     94  65  38 SE9       29.82R
EL PASO        PTCLDY    94  39  14 W7        29.91S
HOUSTON INT    MOCLDY    79  75  89 SE7       29.96R
LUBBOCK        PTCLDY    89  55  31 S17G26    29.86S
SAN ANGELO     CLEAR     89  64  43 S10       29.89R
SAN ANTONIO    PTCLDY    87  71  58 SE17      29.91R
WACO           CLEAR     86  70  58 SE16G23   29.89R
WICHITA FALLS  NOT AVBL
$$
...OTHER LOCATIONS IN NEW MEXICO...

CITY           SKY/WX    TMP DP  RH WIND       PRES   REMARKS
ALAMAGORDO     CLEAR     86  37  17 SW7       29.93S
ALBUQUERQUE    PTCLDY    86  35  16 W9        29.99R
CANNON AFB     CLEAR     85  43  22 W8        29.90R
CLOVIS           N/A     82  41  23 W9        29.92R
HOLLOMAN AFB   CLEAR     88  40  18 SW8       29.91R
ROSWELL        CLEAR     90  44  20 W7        29.86R
RUIDOSO        CLEAR     73  41  31 SW8       30.17R
SANTA FE       CLEAR     79  30  16 NW9       30.05R
TRUTH OR CONSE CLEAR     88  36  15 SW9       29.96R
TUCUMCARI      CLEAR     88  37  16 SW13      29.83S
$$

USA.gov is the U.S. government's official web portal to all federal, state and local government web resources and services.